This demonstration page uses our WeatherBlox Daily Observations layout. Learn more.

Left ArrowRight Arrow

39.51506, -84.39828

Hourly Observations for March 24, 2016

Temp ( °F °C ) Dew Point ( °F °C ) Humidity (%) Winds ( mph kmh ) Pressure ( in mb ) Visibility ( mi km ) Precip ( " mm )
12:15 am 00:15 Cloudy 55 12.5 48 8.7 78 78 Calm 29.91 1013 10 16 0.00 0.00
12:35 am 00:35 Cloudy 56 13.6 47 8.3 71 71 Calm 29.91 1013 10 16 0.00 0.00
12:55 am 00:55 Cloudy 60 15.3 46 7.8 61 61 S 3 6 29.88 1012 10 16 0.00 0.00
1:15 am 01:15 Cloudy 57 13.9 45 7.1 64 64 Calm 29.91 1013 10 16 0.00 0.00
1:35 am 01:35 Cloudy 57 13.8 47 8.2 69 69 S 5 7 29.88 1012 10 16 0.00 0.00
1:55 am 01:55 Cloudy 58 14.5 45 7.4 63 63 SSW 6 9 29.85 1011 10 16 0.00 0.00
2:15 am 02:15 Cloudy 62 16.6 43 5.9 49 49 SSW 9 15 29.85 1011 10 16 0.00 0.00
2:35 am 02:35 Cloudy 62 16.6 43 6 50 50 S 12 19 29.85 1011 10 16 0.00 0.00
3:00 am 03:00 Cloudy 62 16.6 43 6.1 50 50 S 10 17 29.85 1011 10 16 0.00 0.00
3:15 am 03:15 Cloudy 62 16.5 43 6.2 51 51 S 9 15 29.83 1010 10 16 0.00 0.00
3:35 am 03:35 Cloudy 62 16.5 44 6.4 51 51 S 12 19 29.83 1010 10 16 0.00 0.00
3:55 am 03:55 Cloudy 62 16.5 44 6.5 52 52 S 14 22 29.83 1010 10 16 0.00 0.00
4:15 am 04:15 Cloudy 62 16.6 44 6.9 53 53 SSW 8 13 29.83 1010 10 16 0.00 0.00
4:35 am 04:35 Cloudy 62 16.6 45 7 53 53 SSW 12 19 29.83 1010 10 16 0.00 0.00
4:55 am 04:55 Cloudy 62 16.6 45 7.1 54 54 S 12 19 29.83 1010 10 16 0.00 0.00
5:15 am 05:15 Mostly Cloudy 62 16.6 45 7.1 54 54 SSW 14 22 29.83 1010 10 16 0.00 0.00
5:35 am 05:35 Cloudy 62 16.6 46 7.5 55 55 SSW 10 17 29.83 1010 10 16 0.00 0.00
5:55 am 05:55 Cloudy 62 16.6 45 7.4 55 55 SSW 12 19 29.83 1010 10 16 0.00 0.00
6:15 am 06:15 Cloudy 62 16.6 46 7.5 55 55 SSW 14 22 29.83 1010 10 16 0.00 0.00
6:35 am 06:35 Cloudy 62 16.6 46 7.6 56 56 SSW 10 17 29.83 1010 10 16 0.00 0.00
6:55 am 06:55 Cloudy 62 16.6 46 7.7 56 56 SSW 13 20 29.83 1010 10 16 0.00 0.00
7:15 am 07:15 Cloudy 62 16.6 46 8 57 57 S 10 17 29.80 1009 10 16 0.00 0.00
7:35 am 07:35 Cloudy 62 16.6 46 7.9 57 57 S 8 13 29.80 1009 10 16 0.00 0.00
7:55 am 07:55 Cloudy 62 16.6 46 7.8 56 56 S 10 17 29.80 1009 10 16 0.00 0.00
8:15 am 08:15 Cloudy 62 16.7 47 8.1 57 57 SSW 9 15 29.80 1009 10 16 0.00 0.00
8:35 am 08:35 Cloudy 63 17 47 8.3 57 57 SSW 15 24 29.80 1009 10 16 0.00 0.00
8:55 am 08:55 Cloudy 63 17.1 47 8.5 57 57 S 13 20 29.77 1008 10 16 0.00 0.00
9:15 am 09:15 Cloudy 63 17.4 48 8.8 57 57 S 16 26 29.77 1008 10 16 0.00 0.00
9:35 am 09:35 Cloudy 64 18 49 9.5 58 58 S 14 22 29.74 1007 10 16 0.00 0.00
9:55 am 09:55 Cloudy 64 18 49 9.4 57 57 S 18 30 29.74 1007 10 16 0.00 0.00
10:15 am 10:15 Cloudy 67 19.5 51 10.5 56 56 S 16 26 29.74 1007 10 16 0.00 0.00
10:35 am 10:35 Mostly Cloudy 67 19.5 51 10.6 57 57 SSW 20 31 29.71 1006 10 16 0.00 0.00
10:55 am 10:55 Mostly Cloudy 69 20.8 53 11.6 56 56 SSW 17 28 29.71 1006 10 16 0.00 0.00
11:15 am 11:15 Cloudy 69 20.8 53 11.5 55 55 S 20 31 29.71 1006 10 16 0.00 0.00
11:35 am 11:35 Cloudy 69 20.8 52 11.2 54 54 S 22 35 29.68 1005 10 16 0.00 0.00
11:55 am 11:55 Partly Cloudy 69 20.8 52 11 54 54 SSW 18 30 29.68 1005 10 16 0.00 0.00
12:15 pm 12:15 Partly Cloudy 69 20.8 51 10.3 51 51 SSW 31 50 29.68 1005 10 16 0.00 0.00
12:35 pm 12:35 Mostly Cloudy 69 20.8 51 10.6 52 52 SSW 20 31 29.65 1004 10 16 0.00 0.00
12:55 pm 12:55 Mostly Cloudy 72 22.1 52 11.3 50 50 SSW 17 28 29.65 1004 10 16 0.00 0.00
1:20 pm 13:20 Cloudy 71 21.5 51 10.8 51 51 SSW 18 30 29.62 1003 10 16 0.00 0.00
1:35 pm 13:35 Cloudy 71 21.6 52 10.9 51 51 SSW 25 41 29.59 1002 10 16 0.00 0.00
1:55 pm 13:55 Cloudy 69 20.8 51 10.4 52 52 S 20 31 29.59 1002 10 16 0.00 0.00
2:15 pm 14:15 Cloudy 69 20.8 52 11.1 54 54 S 23 37 29.59 1002 10 16 0.00 0.00
2:35 pm 14:35 Cloudy 69 20.8 54 12 57 57 S 17 28 29.59 1002 10 16 0.00 0.00
2:55 pm 14:55 Cloudy 66 18.7 55 12.7 68 68 SSW 22 35 29.56 1001 10 16 0.00 0.00
3:15 pm 15:15 Cloudy with Drizzle 64 18 54 12.3 69 69 S 22 35 29.56 1001 10 16 0.00 0.00
3:35 pm 15:35 Cloudy 67 19.2 56 13.2 68 68 S 21 33 29.56 1001 10 16 0.00 0.00
3:55 pm 15:55 Cloudy with Rain 67 19.2 56 13.2 68 68 SSW 20 31 29.56 1001 10 16 0.00 0.00
4:15 pm 16:15 Cloudy 68 20.2 56 13.6 66 66 SSW 20 31 29.53 1000 10 16 0.00 0.00
4:35 pm 16:35 Cloudy with Heavy Rain 64 17.5 56 13.4 77 77 SSW 24 39 29.56 1001 5 8 0.00 0.00
4:55 pm 16:55 Cloudy with Light Rain 62 16.6 56 13.6 83 83 S 15 24 29.53 1000 10 16 0.00 0.00
5:15 pm 17:15 Cloudy 63 17 56 13.6 81 81 SSW 21 33 29.53 1000 10 16 0.00 0.00
5:35 pm 17:35 Cloudy with Heavy Rain 61 15.9 53 11.9 77 77 WSW 18 30 29.56 1001 5 8 0.00 0.00
5:55 pm 17:55 Cloudy with Heavy Rain 58 14.7 54 12.3 86 86 WSW 17 28 29.56 1001 3 4 0.00 0.00
6:15 pm 18:15 Cloudy with Heavy Rain 57 14 53 11.8 87 87 SW 12 19 29.56 1001 3 4 0.00 0.00
6:35 pm 18:35 Cloudy with Light Rain 58 14.2 54 12.1 87 87 SSW 14 22 29.56 1001 5 8 0.00 0.00
6:55 pm 18:55 Cloudy with Rain 57 14.1 54 12.1 88 88 SW 10 17 29.56 1001 4 6 0.00 0.00
7:15 pm 19:15 Cloudy with Rain 57 14.1 54 12.1 88 88 SW 12 19 29.56 1001 10 16 0.00 0.00
7:35 pm 19:35 Cloudy 57 14 54 12 88 88 SSW 12 19 29.56 1001 10 16 0.00 0.00
7:55 pm 19:55 Cloudy 57 14 53 11.8 87 87 SSW 13 20 29.59 1002 10 16 0.00 0.00
8:15 pm 20:15 Cloudy with Light Rain 57 14 53 11.7 86 86 SSW 10 17 29.59 1002 10 16 0.00 0.00
8:35 pm 20:35 Cloudy 57 14.1 54 12 87 87 SSW 10 17 29.59 1002 10 16 0.00 0.00
8:55 pm 20:55 Cloudy 58 14.2 54 12 87 87 SSW 10 17 29.62 1003 10 16 0.00 0.00
9:15 pm 21:15 Cloudy with Rain 57 13.8 50 10.1 79 79 W 12 19 29.62 1003 10 16 0.00 0.00
9:35 pm 21:35 Cloudy 55 12.5 47 8.1 75 75 WNW 10 17 29.65 1004 10 16 0.00 0.00
9:55 pm 21:55 Cloudy 55 12.5 46 7.5 72 72 W 7 11 29.65 1004 10 16 0.00 0.00
10:15 pm 22:15 Mostly Cloudy 55 12.5 46 7.5 72 72 W 8 13 29.68 1005 10 16 0.00 0.00
10:35 pm 22:35 Cloudy 55 12.5 45 7.1 70 70 WNW 8 13 29.68 1005 10 16 0.00 0.00
10:55 pm 22:55 Cloudy 54 12.4 44 6.9 69 69 W 9 15 29.68 1005 10 16 0.00 0.00
11:15 pm 23:15 Cloudy 52 11 42 5.7 70 70 W 7 11 29.74 1007 10 16 0.00 0.00
11:35 pm 23:35 Cloudy 52 11 42 5.6 70 70 W 9 15 29.74 1007 10 16 0.00 0.00
11:55 pm 23:55 Cloudy 52 11 42 5.5 69 69 W 14 22 29.74 1007 10 16 0.00 0.00

Powered by AerisWeather